Flag for U.S.A. Weather past 2 weeks in Pullman, Washington, U.S.A.

Now
46 °F

Partly sunny.


Feels Like: 41 °F
Forecast: 38 / 60 °F
Wind: 10 mph from East

Location: Pullman / Moscow Regional Airport

Current Time: Mar 29, 2015 at 10:57:17 AM

Latest Report: Mar 29, 2015 at 9:53 AM


Visibility: 10 mi

Pressure: 30.32 "Hg

Humidity: 71%

Dew point: 37 °F

Location of PullmanLocation

Historic Weather in Pullman — Graph

°F

Pullman temperature yesterday

Maximum temperature yesterday: 55 °F (at 12:53 AM)
Minimum temperature yesterday: 39 °F (at 10:53 PM)
Average temperature yesterday: 48 °F

Past Weeks' High & Low Weather Summary

 TemperatureHumidityPressure
High72 °F (Mar 27, 3:53 PM)96% (Mar 15, 2:53 AM)30.39 "Hg (Mar 15, 2:53 AM)
Low34 °F (Mar 25, 4:53 AM)40% (Mar 21, 4:53 PM)29.77 "Hg (Mar 15, 4:53 PM)
Average47 °F76%30.12 "Hg
* Reported Mar 14 8:53 AM — Mar 29 8:53 AM, Pullman, Weather by CustomWeather, © 2015

Note: Actual official high and low records may vary slightly from our data, if they occured in-between our weather recording intervals... More about our weather records

Advertising

Pullman weather history for previous 24 hours

 ConditionsComfort  
Time TempWeatherWind HumidityBarometerVisibility
8:53 AM
Sun, Mar 29
44 °FOvercast.8 mph76%30.32 "Hg10 mi
7:53 AM42 °FOvercast.10 mph79%30.32 "Hg10 mi
6:53 AM41 °FOvercast.7 mph80%30.32 "Hg10 mi
5:53 AM40 °FPassing clouds.5 mph83%30.32 "Hg10 mi
4:53 AM40 °FClear.8 mph80%30.32 "Hg10 mi
3:53 AM40 °FClear.6 mph80%30.33 "Hg10 mi
2:53 AM39 °FClear.3 mph82%30.35 "Hg10 mi
1:53 AM40 °FClear.No wind80%30.35 "Hg10 mi
12:53 AM40 °FClear.5 mph80%30.36 "Hg10 mi
11:53 PM
Sat, Mar 28
39 °FClear.No wind82%30.37 "Hg10 mi
10:53 PM39 °FClear.No wind79%30.37 "Hg10 mi
9:53 PM43 °FClear.No wind74%30.35 "Hg10 mi
8:53 PM43 °FClear.6 mph76%30.36 "Hg10 mi
7:53 PM46 °FSunny.6 mph68%30.35 "Hg10 mi
6:53 PM48 °FSunny.10 mph61%30.33 "Hg10 mi
5:53 PM51 °FPartly sunny.14 mph54%30.31 "Hg10 mi
4:53 PM52 °FPartly sunny.17 mph53%30.29 "Hg10 mi
3:53 PM52 °FPassing clouds.22 mph57%30.27 "Hg10 mi
2:53 PM52 °FScattered clouds.22 mph57%30.26 "Hg10 mi
1:53 PM53 °FScattered clouds.24 mph56%30.24 "Hg10 mi
12:53 PM51 °FMostly cloudy.22 mph61%30.23 "Hg10 mi
11:53 AM50 °FPartly sunny.29 mph66%30.22 "Hg10 mi
10:53 AM49 °FScattered clouds.31 mph69%30.19 "Hg10 mi
Weather by CustomWeather, © 2015

See weather overviewHow to use our weather pages